Погода в Пинске

Погода в Пинске : погода сейчас, прогноз погоды и архив. Всё, что Вы хотите узнать о погоде в Пинске!

Хотите узнать прогноз погоды в Пинске? Тогда Вам сюда: Погода в Пинске

Поиск расширенной информации на нашем сайте:

Другие новости

Новости СМИ2

Главная страница сайта

Новости сайта

02.10.2013

Напоминаем, что на нашем новом сайте вы можете получить высокодетализированные прогнозы погоды по пунктам России, СНГ и мира (включающие важные для авиации метеовеличины, такие как направление и скорость ветра, видимость, явления погоды, количество и форма облачности, нижняя и верхняя граница облачности), а также ознакомиться с разнообразными материалами по авиационной метеорологии и подборкой полезных ссылок на эту тему.

Сайт Метеоцентр.Азия посвящён разработке технологий оптимизации авиаметеорологического обслуживания, включая проектирование и перспективное создание нескольких автоматизированных авиаметеорологических систем:
- система выпуска высокодетальных прогностических карт явлений погоды для нижнего воздушного пространства по России и ближнему зарубежью;
- система верификации прогнозов TAF (выпускаемых синоптиками официальных АМСГ РФ и ближнего зарубежья) и AUTOTAF (выпускаемых сайтом Метеоцентр.Азия) - выявление ошибок, онлайн-сопоставление с фактической погодой METAR, автоматическое внесение коррективов в прогнозы при резком отклонении фактической погоды от прогноза, подсчёт оправдываемости прогнозов по элементам и в целом;
- система обработки, анализа и отображения авиаметеорологической информации для применения провайдерами метеорологической информации.

Рекомендуем: Быстрый поиск работы - работа репетитором. Как перестать искать работу.

Погода в Пинске - сегодня

Время (UTC), дата Ветер
(°,м/с) 
Видим.   Явления Облачность Т
(°С)
Тd
(°С)
f(%) Тe
(°С)
Pmin
(гПа)
dP
(гПа)
Po
(мм)
O2
(г/м3)
Тmin Tmax R s Состояние
почвы
03 21.01.17 270 (З) 6000 м  дымка{снег} [диам. гололёда 1 мм]  10/10 200 м 
[St]
-0.1 -0.9 94 -2  1025  -0.7  755  305      0.4  19   
06 21.01.17 280 (З) 3100 м  слаб. морось{снег}  10/10 300 м 
[St]
+0.7 +0.1 96 -1  1025.2  0.3  755  304  -1.5    0.4  19  равномерный
мокрый или
старый снег
100% 
09 21.01.17 290 (З) 6000 м  дымка{морось}  10/10 300 м 
[St]
+1.4 +0.6 94 1026.9  1.6  757  303           
12 21.01.17 300 (СЗ) 6000 м  дымка{морось}  10/10 300 м 
[St]
+1.5 +0.7 94 -1  1026.6  -0.3  756  303           
15 21.01.17 310 (СЗ) 4{10}  3700 м  дымка{морось}  10/10 300 м 
[St]
+1.3 +0.8 96 -1  1028  1.4  758  304      0.1     
18 21.01.17 330 (СЗ) 7000 м  дымка{морось}  10/10 300 м 
[St]
+1.3 +0.2 92 +1  1029.8  1.8  759  304    +1.7  0.1  15   
21 21.01.17 350 (С) 10 км    8/0 средняя 
[Ac trans]
+1 -1.6 83 1031.8  1.9  760  305           
00 22.01.17 320 (СЗ) 10 км    9/0 средняя 
[Ac trans]
+0 -2.1 86 -1  1032.9  761  307           
03 22.01.17 320 (СЗ) 10 км    9/0 средняя 
[Ac trans]
-0.1 -2.2 86 +1  1033.5  0.6  761  307        15   
06 22.01.17 280 (З) 9000 м  дымка  9/9 600 м 
[Sc]
+0.2 -1.2 90 -1  1033.6  0.1  762  307  -0.3      15  равномерный
сухой снег
100% 
09 22.01.17 260 (З) 9000 м  дымка  9/9 600 м 
[Sc]
+0.2 -1.2 90 -1  1034.2  0.6  762  307           
12 22.01.17 260 (З) 6000 м  дымка  10/10 300 м 
[St]
+0.2 -0.7 94 -2  1033.6  -0.6  762  307           
15 22.01.17 260 (З) 3800 м  дымка  10/10 300 м 
[St]
-0.2 -0.8 96 -2  1032.9  -0.7  761  307           
18 22.01.17 250 (З) 0500 м  туман  ?/?  
-1 -1 100 -4  1032.4  -0.5  761  308    +0.4    15   
21 22.01.17 250 (З) 0200 м  туман  ?/?  
-1 -1 100 -2  1031.8  -0.6  760  308           
00 23.01.17 250 (З) 0400 м  туман  ?/?  
-1.4 -1.4 100 -3  1030.5  -1.2  759  308           
03 23.01.17 250 (З) 0200 м  переохл. туман [диам. гололёда 0 мм]  ?/?  
-1.4 -1.4 100 -3  1028.9  -1.6  758  307        15   
06 23.01.17 250 (З) 0800 м  переохл. туман [диам. гололёда 1 мм]  ?/?  
-1.6 -1.6 100 -4  1028.2  -0.8  758  307  -1.6      15  равномерный
сухой снег
100% 
09 23.01.17 240 (ЮЗ) 1900 м  дымка{туман} [диам. гололёда 1 мм]  10/10 200 м 
[St]
-1.7 -1.9 99 -4  1027.6  -0.6  757  307           
12 23.01.17 250 (З) 3700 м  дымка{туман} [диам. гололёда 1 мм]  10/10 200 м 
[St]
-1.6 -2.1 96 -4  1025.3  -2.2  755  306           
15 23.01.17 240 (ЮЗ) 3600 м  дымка [диам. гололёда 1 мм]  10/10 200 м 
[St]
-1.6 -2.1 96 -3  1024.3  -1  755  306           
18 23.01.17 220 (ЮЗ) 3700 м  дымка [диам. гололёда 0 мм]  10/10 200 м 
[St]
-1.8 -2.3 96 -3  1022.8  -1.5  754  306    -1.5    15   
21 23.01.17 280 (З) 6000 м  дымка [диам. гололёда 0 мм]  10/10 300 м 
[St]
-1.6 -2.4 94 -4  1022.3  -0.5  753  306           
00 24.01.17 240 (ЮЗ) 6000 м  дымка [диам. гололёда 0 мм]  9/9 300 м 
[Sc]
-3.1 -4.1 93 -5  1021.2  -1.2  752  307           
03 24.01.17 260 (З) 3800 м  дымка [диам. гололёда 0 мм]  8/8 600 м 
[Sc]
-5.5 -6.2 95 -7  1020.6  -0.7  752  310        15   
Время (UTC), дата Ветер
(°,м/с) 
Видим.   Явления Облачность Т
(°С)
Тd
(°С)
f(%) Тe
(°С)
Pmin
(гПа)
dP
(гПа)
Po
(мм)
O2
(г/м3)
Тmin Tmax R s Состояние
почвы

Для получения пояснительной информации подведите курсор к названию столбца.

ПОГОДА в Пинске - архив

Всё, что Вы хотите узнать о погоде в Пинске - удобно и подробно!

Выберите нужную дату (начиная с 1 января 2015* года) и нажмите кнопку "Найти".
Будут отображены архивные сводки погоды по пункту Пинск, начиная с указанной даты.


Отображать данные в формате CSV (для использования в таблицах Excel)


Внимание! Наш архив погоды предназначен исключительно для личного некоммерческого использования в познавательных целях. Если Вам необходимы официальные справки о состоянии погоды (для производственных, юридических, коммерческих и т.п. целей), обращайтесь в органы Росгидромета.

*Примечание: данная дата относится к архиву по метеостанциям СССР (Россия, СНГ, Балтия).
Архив по метеостанциям Зарубежной Европы и Азии (кроме Китая) хранится 10 дней, по другим регионам земного шара (Китай, Африка, Америка, Австралия, Океания) - 1 день.

Пинск - район местоположения метеостанции


Название, широта, долгота, высота метеостанции:
Пинск 52.1°ш. 26.1°д. 142 м над ур. моря [Беларусь]

Дополнительная информация

В oтличие oт бoльшинства пoгoдных сайтoв мы публикуем пoдрoбную метеoинфoрмацию в детальнoм прoфессиoнальнoм фoрмате.

Характеристики температуры и влажнoсти вoздуха измеряются на высoте 2 м в тени вдали oт зданий и деревьев.
Скoрoсть ветра измеряется на высoте 10 м (на урoвне рoста челoвека скoрoсть ветра ниже в 1.5-2 раза). Если метеoстанция нахoдится в гoрoде или в лесу, тo скoрoсть ветра занижена на 2-4 м/с пo сравнению с oткрытым местoм. Скoрoсть ветра над акватoриями крупных рек и oзёр, а также на вершинах хoлмoв на 2-5 м/с выше, чем в oбычных услoвиях.
Атмoсфернoе давление в разных тoчках местнoсти мoжет значительнo oтличаться oт давления на метеoстанции, в зависимoсти oт услoвий рельефа (при пoдъёме на 10 м давление пoнижается примернo на 1 мм рт.ст.).